New Orleans Lakefront, LA

3:15 AM CDT on April 30, 2017 (GMT -0500)
Lakefront

Weather History for KNEW - June, 2012

Change the Weather History Date:

Tuesday, June 12, 2012

  Actual Average Record
Temperature  
Mean Temperature 80 °F 81 °F  
Max Temperature 88 °F 89 °F 96 °F (2006)
Min Temperature 71 °F 73 °F 60 °F (1988)
Degree Days  
Heating Degree Days 0 0  
Month to date heating degree days 0 0  
Since 1 June heating degree days 0 0  
Since 1 July heating degree days 766 1280  
Cooling Degree Days 15 16  
Month to date cooling degree days 187 186  
Year to date cooling degree days 1203 805  
Since 1 June cooling degree days 187 186  
Growing Degree Days 30 (Base 50)    
Moisture  
Dew Point 69 °F    
Average Humidity 73    
Maximum Humidity 90    
Minimum Humidity 55    
Precipitation  
Precipitation T in 0.29 in 2.08 in (1987)
Month to date precipitation 1.71 3.01  
Year to date precipitation 25.55 27.25  
Snow  
Snow 0.00 in - - ()
Month to date snowfall 0.0  
Since 1 June snowfall 0.0  
Since 1 July snowfall 0.0  
Snow Depth 0.00 in    
Sea Level Pressure  
Sea Level Pressure 30.06 in    
Wind  
Wind Speed 9 mph (NNW)    
Max Wind Speed 30 mph    
Max Gust Speed 40 mph    
Visibility 9 miles    
Events Rain    
T = Trace of Precipitation, MM = Missing Value Source: NWS Daily Summary

Daily Weather History Graph

Daily Weather History Graph

Search for Another Location

Airport or City:

Trip Planner

Search our weather history database for the weather conditions in past years. The results will help you decide how hot, cold, wet, or windy it might be!

Date:

Astronomy

Jun. 12, 2012 Rise Set
Actual Time 5:58 AM CDT 8:01 PM CDT
Civil Twilight 5:30 AM CDT 8:29 PM CDT
Nautical Twilight 4:57 AM CDT 9:02 PM CDT
Astronomical Twilight 4:22 AM CDT 9:38 PM CDT
Moon 1:21 AM CDT (6/12) 2:10 PM CDT (6/12)
Length of Visible Light 14h 58m
Length of Day
14h 03m
Last Quarter, 38% of the Moon is Illuminated
Jun 12
Last Quarter
Jun 19
New
Jun 26
First Quarter
Jul 3
Full
Jul 10
Last Quarter

Hourly Weather History & Observations

Time (CDT) Temp. Heat Index Dew Point Humidity Pressure Visibility Wind Dir Wind Speed Gust Speed Precip Events Conditions
12:04 AM 82.4 °F 89.5 °F 75.2 °F 79% 30.11 in 8.0 mi NNE 4.6 mph - N/A   Overcast
12:53 AM 82.0 °F 89.4 °F 75.9 °F 82% 30.11 in 8.0 mi North 8.1 mph - N/A   Overcast
1:22 AM 73.4 °F - 68.0 °F 83% 30.16 in 10.0 mi NNE 33.4 mph 47.2 mph 0.04 in   Overcast
1:32 AM 73.4 °F - 69.8 °F 88% 30.16 in 2.0 mi NE 28.8 mph 40.3 mph 0.14 in Rain Heavy Rain
1:41 AM 73.4 °F - 69.8 °F 88% 30.15 in 3.0 mi NE 21.9 mph - 0.19 in Rain Light Rain
1:53 AM 73.9 °F - 69.1 °F 85% 30.12 in 10.0 mi ENE 20.7 mph - 0.19 in Rain Light Rain
2:53 AM 73.9 °F - 66.9 °F 79% 30.09 in 10.0 mi ESE 9.2 mph - N/A   Overcast
3:53 AM 73.9 °F - 66.0 °F 76% 30.05 in 10.0 mi SE 9.2 mph - N/A   Scattered Clouds
4:53 AM 73.9 °F - 66.9 °F 79% 30.01 in 10.0 mi South 9.2 mph - N/A   Clear
5:53 AM 73.0 °F - 66.9 °F 81% 29.99 in 10.0 mi South 11.5 mph - N/A   Clear
6:53 AM 75.9 °F - 68.0 °F 76% 29.99 in 10.0 mi SW 16.1 mph - N/A   Clear
7:53 AM 78.1 °F - 70.0 °F 76% 30.04 in 10.0 mi WSW 9.2 mph - N/A   Partly Cloudy
8:53 AM 78.1 °F - 70.0 °F 76% 30.07 in 10.0 mi WSW 5.8 mph - N/A   Clear
9:22 AM 78.8 °F - 69.8 °F 74% 30.09 in 10.0 mi Variable 4.6 mph - N/A   Partly Cloudy
9:53 AM 81.0 °F 84.9 °F 71.1 °F 72% 30.10 in 10.0 mi NW 12.7 mph - N/A   Clear
10:34 AM 78.8 °F - 71.6 °F 78% 30.14 in 10.0 mi North 23.0 mph 31.1 mph N/A   Overcast
10:53 AM 80.1 °F 83.2 °F 70.0 °F 71% 30.13 in 10.0 mi North 20.7 mph 32.2 mph N/A   Mostly Cloudy
11:04 AM 80.6 °F 83.9 °F 69.8 °F 70% 30.15 in 10.0 mi North 20.7 mph - N/A   Mostly Cloudy
11:53 AM 81.0 °F 83.8 °F 68.0 °F 65% 30.12 in 10.0 mi North 19.6 mph - N/A   Overcast
12:53 PM 82.9 °F 85.8 °F 68.0 °F 60% 30.08 in 10.0 mi North 5.8 mph - N/A   Partly Cloudy
1:53 PM 82.0 °F 85.5 °F 69.1 °F 65% 30.05 in 10.0 mi WNW 8.1 mph - N/A   Clear
2:53 PM 82.9 °F 86.5 °F 69.1 °F 63% 30.04 in 10.0 mi WNW 16.1 mph - N/A   Overcast
3:53 PM 84.0 °F 87.0 °F 68.0 °F 58% 29.99 in 10.0 mi West 15.0 mph - N/A   Clear
4:53 PM 86.0 °F 88.2 °F 66.0 °F 51% 29.91 in 10.0 mi South 15.0 mph - N/A   Clear
5:53 PM 87.1 °F 89.9 °F 66.9 °F 51% 29.94 in 10.0 mi SSW 6.9 mph - N/A   Clear
6:43 PM 84.2 °F 89.6 °F 71.6 °F 66% 30.00 in 10.0 mi NNW 15.0 mph - N/A   Partly Cloudy
6:53 PM 84.0 °F 89.6 °F 72.0 °F 67% 29.99 in 10.0 mi NNW 15.0 mph - N/A   Partly Cloudy
7:53 PM 82.0 °F 86.3 °F 71.1 °F 69% 30.00 in 10.0 mi NW 10.4 mph - N/A   Clear
8:53 PM 82.0 °F 84.9 °F 68.0 °F 62% 30.01 in 10.0 mi NW 15.0 mph - N/A   Clear
9:53 PM 80.1 °F 83.2 °F 70.0 °F 71% 30.03 in 10.0 mi NW 15.0 mph - 0.01 in   Overcast
10:53 PM 80.1 °F 83.6 °F 71.1 °F 74% 30.04 in 10.0 mi NW 17.3 mph - N/A   Overcast
11:53 PM 78.1 °F - 69.1 °F 74% 30.03 in 10.0 mi NW 15.0 mph - N/A   Scattered Clouds